| time (UTC) | temp F | wind direction | speed MPH | gust MPH | rain 1hr in | rain 24hr in | rain mn in | humidity % | barometer mb |
| 20260502210054 | 58 | 79 | 4.0 | 9.0 | 0.00 | 0.00 | 0.00 | 22 | 1011.2 |
| 20260502205821 | 58 | 107 | 4.0 | 9.0 | 0.00 | 0.00 | 0.00 | 22 | 1011.4 |
| 20260502205049 | 58 | 136 | 4.0 | 8.0 | 0.00 | 0.00 | 0.00 | 22 | 1011.5 |
| 20260502204545 | 58 | 121 | 3.0 | 8.0 | 0.00 | 0.00 | 0.00 | 21 | 1011.7 |
| 20260502204042 | 58 | 111 | 3.0 | 8.0 | 0.00 | 0.00 | 0.00 | 22 | 1011.5 |
| 20260502203537 | 57 | 113 | 5.0 | 8.0 | 0.00 | 0.00 | 0.00 | 22 | 1011.9 |
| 20260502203032 | 57 | 119 | 6.0 | 9.0 | 0.00 | 0.00 | 0.00 | 23 | 1011.8 |
| 20260502202800 | 57 | 106 | 7.0 | 10.0 | 0.00 | 0.00 | 0.00 | 23 | 1011.9 |
| 20260502202026 | 57 | 116 | 6.0 | 10.0 | 0.00 | 0.00 | 0.00 | 20 | 1012.1 |
| 20260502201753 | 58 | 130 | 5.0 | 9.0 | 0.00 | 0.00 | 0.00 | 21 | 1012.1 |
| 20260502201019 | 57 | 144 | 5.0 | 8.0 | 0.00 | 0.00 | 0.00 | 21 | 1012.1 |
| 20260502200517 | 57 | 117 | 5.0 | 8.0 | 0.00 | 0.00 | 0.00 | 24 | 1012.4 |
| 20260502195951 | 56 | 74 | 5.0 | 9.0 | 0.00 | 0.00 | 0.00 | 23 | 1012.5 |
| 20260502195423 | 55 | 132 | 5.0 | 9.0 | 0.00 | 0.00 | 0.00 | 23 | 1012.7 |
| 20260502194921 | 56 | 92 | 6.0 | 11.0 | 0.00 | 0.00 | 0.00 | 23 | 1012.8 |
| 20260502194355 | 57 | 126 | 6.0 | 11.0 | 0.00 | 0.00 | 0.00 | 23 | 1012.9 |
| 20260502193830 | 58 | 161 | 4.0 | 10.0 | 0.00 | 0.00 | 0.00 | 21 | 1013.0 |
| 20260502193331 | 57 | 155 | 4.0 | 8.0 | 0.00 | 0.00 | 0.00 | 23 | 1013.2 |
| 20260502193102 | 57 | 102 | 3.0 | 7.0 | 0.00 | 0.00 | 0.00 | 24 | 1013.1 |
| 20260502192807 | 57 | 107 | 3.0 | 6.0 | 0.00 | 0.00 | 0.00 | 23 | 1013.3 |
| 20260502191752 | 55 | 111 | 4.0 | 8.0 | 0.00 | 0.00 | 0.00 | 28 | 1013.4 |
| 20260502191526 | 55 | 172 | 5.0 | 8.0 | 0.00 | 0.00 | 0.00 | 24 | 1013.5 |
| 20260502190729 | 55 | 105 | 5.0 | 9.0 | 0.00 | 0.00 | 0.00 | 25 | 1013.5 |
| 20260502190226 | 56 | 123 | 4.0 | 9.0 | 0.00 | 0.00 | 0.00 | 23 | 1013.7 |
| 20260502185723 | 56 | 186 | 3.0 | 9.0 | 0.00 | 0.00 | 0.00 | 25 | 1013.8 |
| 20260502185156 | 55 | 150 | 4.0 | 9.0 | 0.00 | 0.00 | 0.00 | 26 | 1013.9 |
| 20260502184653 | 54 | 138 | 5.0 | 10.0 | 0.00 | 0.00 | 0.00 | 24 | 1014.0 |
| 20260502184127 | 55 | 152 | 4.0 | 10.0 | 0.00 | 0.00 | 0.00 | 25 | 1014.2 |
| 20260502183559 | 55 | 191 | 2.0 | 7.0 | 0.00 | 0.00 | 0.00 | 27 | 1014.2 |
| 20260502183329 | 54 | 192 | 3.0 | 7.0 | 0.00 | 0.00 | 0.00 | 26 | 1014.3 |
| 20260502182545 | 53 | 164 | 4.0 | 8.0 | 0.00 | 0.00 | 0.00 | 27 | 1014.5 |
| 20260502182042 | 53 | 86 | 4.0 | 8.0 | 0.00 | 0.00 | 0.00 | 26 | 1014.6 |
| 20260502181516 | 53 | 173 | 4.0 | 8.0 | 0.00 | 0.00 | 0.00 | 26 | 1014.7 |
| 20260502181013 | 54 | 117 | 3.0 | 6.0 | 0.00 | 0.00 | 0.00 | 26 | 1014.9 |
| 20260502180447 | 54 | 122 | 4.0 | 9.0 | 0.00 | 0.00 | 0.00 | 27 | 1014.8 |
| 20260502180151 | 54 | 138 | 5.0 | 9.0 | 0.00 | 0.00 | 0.00 | 27 | 1014.8 |
| 20260502170129 | 52 | 160 | 4.0 | 9.0 | 0.00 | 0.00 | 0.00 | 29 | 1015.9 |
| 20260502164030 | 51 | 128 | 3.0 | 7.0 | 0.00 | 0.00 | 0.00 | 34 | 1016.2 |
| 20260502163505 | 51 | 140 | 3.0 | 7.0 | 0.00 | 0.00 | 0.00 | 33 | 1016.3 |
| 20260502162938 | 51 | 95 | 3.0 | 7.0 | 0.00 | 0.00 | 0.00 | 33 | 1016.4 |
| 20260502162435 | 50 | 92 | 3.0 | 8.0 | 0.00 | 0.00 | 0.00 | 35 | 1016.5 |
| 20260502161907 | 50 | 148 | 4.0 | 8.0 | 0.00 | 0.00 | 0.00 | 36 | 1016.5 |
| 20260502161639 | 50 | 122 | 4.0 | 8.0 | 0.00 | 0.00 | 0.00 | 36 | 1016.5 |
| 20260502161108 | 50 | 190 | 3.0 | 8.0 | 0.00 | 0.00 | 0.00 | 35 | 1016.7 |
| 20260502160335 | 50 | 144 | 4.0 | 9.0 | 0.00 | 0.00 | 0.00 | 37 | 1016.7 |
| 20260502152202 | 47 | 181 | 3.0 | 6.0 | 0.00 | 0.00 | 0.00 | 39 | 1017.3 |
| 20260502151645 | 46 | 153 | 3.0 | 6.0 | 0.00 | 0.00 | 0.00 | 37 | 1017.5 |
| 20260502151147 | 46 | 165 | 3.0 | 8.0 | 0.00 | 0.00 | 0.00 | 36 | 1017.5 |
| 20260502150901 | 46 | 149 | 3.0 | 8.0 | 0.00 | 0.00 | 0.00 | 39 | 1017.5 |
| 20260502150104 | 45 | 130 | 3.0 | 5.0 | 0.00 | 0.00 | 0.00 | 40 | 1017.5 |
| 20260502130132 | 40 | 181 | 2.0 | 3.0 | 0.00 | 0.00 | 0.00 | 48 | 1018.3 |
| 20260502123422 | 40 | 219 | 1.0 | 2.0 | 0.00 | 0.00 | 0.00 | 46 | 1018.3 |
| 20260502122856 | 40 | 235 | 0.0 | 2.0 | 0.00 | 0.00 | 0.00 | 45 | 1018.2 |
| 20260502122330 | 40 | 260 | 0.0 | 2.0 | 0.00 | 0.00 | 0.00 | 46 | 1018.3 |
| 20260502121804 | 39 | 264 | 0.0 | 0.0 | 0.00 | 0.00 | 0.00 | 45 | 1018.3 |
| 20260502121242 | 39 | 265 | 0.0 | 0.0 | 0.00 | 0.00 | 0.00 | 47 | 1018.3 |
| 20260502121238 | 39 | 264 | 0.0 | 0.0 | 0.00 | 0.00 | 0.00 | 47 | 1018.3 |
| 20260502120223 | 38 | 266 | 0.0 | 0.0 | 0.00 | 0.00 | 0.00 | 45 | 1018.4 |
| 20260502115723 | 38 | 266 | 0.0 | 2.0 | 0.00 | 0.00 | 0.00 | 45 | 1018.4 |
| 20260502115657 | 38 | 266 | 0.0 | 2.0 | 0.00 | 0.00 | 0.00 | 46 | 1018.4 |
| 20260502114656 | 37 | 267 | 1.0 | 4.0 | 0.00 | 0.00 | 0.00 | 48 | 1018.4 |
| 20260502114129 | 37 | 267 | 2.0 | 6.0 | 0.00 | 0.00 | 0.00 | 48 | 1018.4 |
| 20260502113625 | 37 | 271 | 3.0 | 6.0 | 0.00 | 0.00 | 0.00 | 47 | 1018.4 |
| 20260502113101 | 35 | 268 | 2.0 | 6.0 | 0.00 | 0.00 | 0.00 | 48 | 1018.3 |
| 20260502112532 | 33 | 283 | 2.0 | 4.0 | 0.00 | 0.00 | 0.00 | 52 | 1018.4 |
| 20260502112030 | 33 | 283 | 2.0 | 4.0 | 0.00 | 0.00 | 0.00 | 52 | 1018.3 |
| 20260502111504 | 33 | 283 | 2.0 | 4.0 | 0.00 | 0.00 | 0.00 | 53 | 1018.4 |
| 20260502110938 | 33 | 282 | 2.0 | 4.0 | 0.00 | 0.00 | 0.00 | 52 | 1018.4 |
| 20260502110435 | 34 | 282 | 3.0 | 4.0 | 0.00 | 0.00 | 0.00 | 50 | 1018.4 |
| 20260502110204 | 34 | 282 | 3.0 | 4.0 | 0.00 | 0.00 | 0.00 | 49 | 1018.4 |
| 20260502105403 | 34 | 279 | 3.0 | 4.0 | 0.00 | 0.00 | 0.00 | 49 | 1018.3 |
| 20260502104838 | 35 | 278 | 4.0 | 4.0 | 0.00 | 0.00 | 0.00 | 48 | 1018.3 |
| 20260502104310 | 34 | 277 | 4.0 | 6.0 | 0.00 | 0.00 | 0.00 | 49 | 1018.3 |
| 20260502103807 | 34 | 279 | 4.0 | 6.0 | 0.00 | 0.00 | 0.00 | 50 | 1018.3 |
| 20260502103242 | 32 | 286 | 3.0 | 5.0 | 0.00 | 0.00 | 0.00 | 53 | 1018.3 |
| 20260502102947 | 31 | 284 | 2.0 | 5.0 | 0.00 | 0.00 | 0.00 | 56 | 1018.3 |
| 20260502102212 | 31 | 287 | 2.0 | 3.0 | 0.00 | 0.00 | 0.00 | 57 | 1018.5 |
| 20260502101645 | 30 | 282 | 3.0 | 4.0 | 0.00 | 0.00 | 0.00 | 57 | 1018.5 |
| 20260502101142 | 31 | 284 | 3.0 | 4.0 | 0.00 | 0.00 | 0.00 | 57 | 1018.4 |
| 20260502100638 | 31 | 293 | 2.0 | 4.0 | 0.00 | 0.00 | 0.00 | 56 | 1018.5 |
| 20260502100135 | 31 | 300 | 2.0 | 3.0 | 0.00 | 0.00 | 0.00 | 56 | 1018.5 |
| 20260502091447 | 31 | 292 | 2.0 | 3.0 | 0.00 | 0.00 | 0.00 | 56 | 1018.5 |
| 20260502090921 | 32 | 292 | 2.0 | 4.0 | 0.00 | 0.00 | 0.00 | 55 | 1018.4 |
| 20260502090418 | 32 | 291 | 3.0 | 5.0 | 0.00 | 0.00 | 0.00 | 55 | 1018.4 |
| 20260502071325 | 31 | 306 | 2.0 | 3.0 | 0.00 | 0.00 | 0.00 | 54 | 1019.0 |
| 20260502070800 | 31 | 306 | 3.0 | 4.0 | 0.00 | 0.00 | 0.00 | 54 | 1019.1 |
| 20260502070233 | 32 | 307 | 3.0 | 4.0 | 0.00 | 0.00 | 0.00 | 53 | 1019.0 |
| 20260502065708 | 32 | 304 | 3.0 | 4.0 | 0.00 | 0.00 | 0.00 | 52 | 1019.1 |
| 20260502065141 | 32 | 301 | 3.0 | 4.0 | 0.00 | 0.00 | 0.00 | 53 | 1019.1 |
| 20260502064638 | 32 | 296 | 3.0 | 4.0 | 0.00 | 0.00 | 0.00 | 52 | 1019.2 |
| 20260502064112 | 32 | 288 | 4.0 | 4.0 | 0.00 | 0.00 | 0.00 | 52 | 1019.2 |
| 20260502063842 | 32 | 286 | 3.0 | 5.0 | 0.00 | 0.00 | 0.00 | 52 | 1019.1 |
| 20260502063341 | 32 | 298 | 4.0 | 5.0 | 0.00 | 0.00 | 0.00 | 52 | 1019.2 |
| 20260502062610 | 33 | 296 | 4.0 | 5.0 | 0.00 | 0.00 | 0.00 | 51 | 1019.1 |
| 20260502062315 | 33 | 296 | 4.0 | 5.0 | 0.00 | 0.00 | 0.00 | 51 | 1019.2 |
| 20260502061540 | 33 | 294 | 4.0 | 5.0 | 0.00 | 0.00 | 0.00 | 50 | 1019.2 |
| 20260502061037 | 33 | 290 | 4.0 | 5.0 | 0.00 | 0.00 | 0.00 | 49 | 1019.2 |
| 20260502060502 | 34 | 290 | 4.0 | 5.0 | 0.00 | 0.00 | 0.00 | 48 | 1019.2 |
| 20260502055942 | 34 | 290 | 4.0 | 5.0 | 0.00 | 0.00 | 0.00 | 49 | 1019.2 |
| 20260502055419 | 33 | 296 | 4.0 | 5.0 | 0.00 | 0.00 | 0.00 | 50 | 1019.3 |
| 20260502054919 | 33 | 298 | 3.0 | 4.0 | 0.00 | 0.00 | 0.00 | 52 | 1019.2 |
| 20260502054356 | 32 | 296 | 3.0 | 4.0 | 0.00 | 0.00 | 0.00 | 52 | 1019.2 |
| 20260502053830 | 32 | 294 | 3.0 | 4.0 | 0.00 | 0.00 | 0.00 | 53 | 1019.3 |
| 20260502053332 | 32 | 302 | 3.0 | 4.0 | 0.00 | 0.00 | 0.00 | 53 | 1019.3 |
| 20260502052805 | 32 | 303 | 3.0 | 4.0 | 0.00 | 0.00 | 0.00 | 53 | 1019.3 |
| 20260502052247 | 32 | 304 | 3.0 | 4.0 | 0.00 | 0.00 | 0.00 | 53 | 1019.3 |
| 20260502051748 | 32 | 304 | 3.0 | 4.0 | 0.00 | 0.00 | 0.00 | 54 | 1019.4 |
| 20260502051232 | 32 | 303 | 3.0 | 4.0 | 0.00 | 0.00 | 0.00 | 54 | 1019.3 |
| 20260502050733 | 32 | 300 | 3.0 | 4.0 | 0.00 | 0.00 | 0.00 | 54 | 1019.3 |
| 20260502050208 | 32 | 301 | 3.0 | 4.0 | 0.00 | 0.00 | 0.00 | 54 | 1019.4 |
| 20260502045710 | 32 | 304 | 2.0 | 3.0 | 0.00 | 0.00 | 0.00 | 52 | 1019.4 |
| 20260502045415 | 33 | 304 | 2.0 | 3.0 | 0.00 | 0.00 | 0.00 | 53 | 1019.4 |
| 20260502044617 | 33 | 304 | 2.0 | 3.0 | 0.00 | 0.00 | 0.00 | 53 | 1019.4 |
| 20260502044104 | 33 | 304 | 1.0 | 2.0 | 0.00 | 0.00 | 0.00 | 52 | 1019.5 |
| 20260502043607 | 33 | 305 | 1.0 | 3.0 | 0.00 | 0.00 | 0.00 | 52 | 1019.4 |
| 20260502043050 | 33 | 304 | 2.0 | 3.0 | 0.00 | 0.00 | 0.00 | 53 | 1019.3 |
| 20260502042549 | 33 | 305 | 3.0 | 4.0 | 0.00 | 0.00 | 0.00 | 53 | 1019.4 |
| 20260502042024 | 33 | 305 | 3.0 | 4.0 | 0.00 | 0.00 | 0.00 | 53 | 1019.4 |
| 20260502041524 | 33 | 305 | 2.0 | 3.0 | 0.00 | 0.00 | 0.00 | 52 | 1019.4 |
| 20260502040958 | 33 | 303 | 2.0 | 3.0 | 0.00 | 0.00 | 0.00 | 51 | 1019.4 |
| 20260502040433 | 34 | 303 | 2.0 | 3.0 | 0.00 | 0.00 | 0.00 | 51 | 1019.4 |
| 20260502035934 | 34 | 300 | 2.0 | 3.0 | 0.00 | 0.00 | 0.00 | 51 | 1019.4 |
| 20260502035417 | 34 | 300 | 2.0 | 3.0 | 0.00 | 0.00 | 0.00 | 51 | 1019.5 |
| 20260502035147 | 35 | 302 | 2.0 | 3.0 | 0.00 | 0.00 | 0.00 | 50 | 1019.4 |
| 20260502034647 | 35 | 302 | 2.0 | 3.0 | 0.00 | 0.00 | 0.00 | 49 | 1019.4 |
| 20260502033915 | 35 | 303 | 2.0 | 3.0 | 0.00 | 0.00 | 0.00 | 48 | 1019.4 |
| 20260502033353 | 35 | 302 | 3.0 | 4.0 | 0.00 | 0.00 | 0.00 | 49 | 1019.4 |
| 20260502032844 | 35 | 302 | 3.0 | 4.0 | 0.00 | 0.00 | 0.00 | 49 | 1019.4 |
| 20260502032343 | 35 | 303 | 3.0 | 3.0 | 0.00 | 0.00 | 0.00 | 50 | 1019.5 |
| 20260502031845 | 35 | 304 | 3.0 | 3.0 | 0.00 | 0.00 | 0.00 | 48 | 1019.5 |
| 20260502031324 | 35 | 304 | 2.0 | 3.0 | 0.00 | 0.00 | 0.00 | 48 | 1019.4 |
| 20260502030824 | 36 | 304 | 3.0 | 4.0 | 0.00 | 0.00 | 0.00 | 48 | 1019.5 |
| 20260502030326 | 36 | 303 | 3.0 | 4.0 | 0.00 | 0.00 | 0.00 | 48 | 1019.4 |
| 20260502025810 | 36 | 301 | 3.0 | 3.0 | 0.00 | 0.00 | 0.00 | 48 | 1019.4 |
| 20260502025249 | 36 | 300 | 3.0 | 4.0 | 0.00 | 0.00 | 0.00 | 47 | 1019.4 |
| 20260502024737 | 36 | 298 | 3.0 | 4.0 | 0.00 | 0.00 | 0.00 | 47 | 1019.4 |
| 20260502024238 | 36 | 297 | 3.0 | 4.0 | 0.00 | 0.00 | 0.00 | 47 | 1019.4 |
| 20260502023735 | 37 | 294 | 3.0 | 4.0 | 0.00 | 0.00 | 0.00 | 47 | 1019.5 |
| 20260502023208 | 37 | 300 | 3.0 | 3.0 | 0.00 | 0.00 | 0.00 | 46 | 1019.4 |
| 20260502022647 | 37 | 311 | 3.0 | 3.0 | 0.00 | 0.00 | 0.00 | 45 | 1019.4 |
| 20260502022123 | 38 | 314 | 2.0 | 3.0 | 0.00 | 0.00 | 0.00 | 46 | 1019.3 |
| 20260502021603 | 38 | 329 | 2.0 | 3.0 | 0.00 | 0.00 | 0.00 | 43 | 1019.3 |
| 20260502021309 | 38 | 30 | 2.0 | 3.0 | 0.00 | 0.00 | 0.00 | 43 | 1019.2 |
| 20260502020808 | 39 | 33 | 2.0 | 3.0 | 0.00 | 0.00 | 0.00 | 43 | 1019.2 |
| 20260502020039 | 39 | 33 | 2.0 | 3.0 | 0.00 | 0.00 | 0.00 | 42 | 1019.2 |
| 20260502015744 | 39 | 33 | 2.0 | 3.0 | 0.00 | 0.00 | 0.00 | 42 | 1019.2 |
| 20260502015009 | 40 | 43 | 2.0 | 3.0 | 0.00 | 0.00 | 0.00 | 42 | 1019.1 |
| 20260502014459 | 41 | 44 | 1.0 | 3.0 | 0.00 | 0.00 | 0.00 | 41 | 1019.1 |
| 20260502013936 | 41 | 44 | 0.0 | 2.0 | 0.00 | 0.00 | 0.00 | 39 | 1019.1 |
| 20260502013410 | 42 | 44 | 1.0 | 3.0 | 0.00 | 0.00 | 0.00 | 35 | 1019.1 |
| 20260502012905 | 42 | 44 | 1.0 | 3.0 | 0.00 | 0.00 | 0.00 | 34 | 1019.0 |
| 20260502012338 | 42 | 45 | 1.0 | 3.0 | 0.00 | 0.00 | 0.00 | 35 | 1019.0 |
| 20260502011814 | 42 | 45 | 1.0 | 3.0 | 0.00 | 0.00 | 0.00 | 34 | 1019.1 |
| 20260502011538 | 42 | 76 | 1.0 | 3.0 | 0.00 | 0.00 | 0.00 | 35 | 1019.1 |
| 20260502010806 | 42 | 76 | 0.0 | 2.0 | 0.00 | 0.00 | 0.00 | 35 | 1019.0 |
| 20260502010239 | 43 | 77 | 1.0 | 2.0 | 0.00 | 0.00 | 0.00 | 35 | 1019.0 |
| 20260502005943 | 43 | 77 | 0.0 | 2.0 | 0.00 | 0.00 | 0.00 | 35 | 1019.0 |
| 20260502005441 | 43 | 77 | 1.0 | 2.0 | 0.00 | 0.00 | 0.00 | 36 | 1019.0 |
| 20260502004706 | 43 | 77 | 1.0 | 3.0 | 0.00 | 0.00 | 0.00 | 36 | 1019.0 |
| 20260502004433 | 43 | 77 | 1.0 | 4.0 | 0.00 | 0.00 | 0.00 | 35 | 1019.0 |
| 20260502003635 | 44 | 76 | 1.0 | 4.0 | 0.00 | 0.00 | 0.00 | 34 | 1018.9 |
| 20260502003133 | 44 | 75 | 2.0 | 4.0 | 0.00 | 0.00 | 0.00 | 33 | 1019.0 |
| 20260502002837 | 44 | 76 | 3.0 | 6.0 | 0.00 | 0.00 | 0.00 | 33 | 1019.0 |
| 20260502002101 | 44 | 98 | 3.0 | 6.0 | 0.00 | 0.00 | 0.00 | 33 | 1019.0 |
| 20260502001556 | 44 | 97 | 2.0 | 6.0 | 0.00 | 0.00 | 0.00 | 33 | 1018.9 |
| 20260502001058 | 44 | 91 | 3.0 | 7.0 | 0.00 | 0.00 | 0.00 | 32 | 1018.9 |
| 20260502000557 | 44 | 73 | 4.0 | 7.0 | 0.00 | 0.00 | 0.00 | 31 | 1018.9 |
| 20260502000059 | 44 | 67 | 4.0 | 6.0 | 0.00 | 0.00 | 0.00 | 31 | 1018.9 |
| 20260501235531 | 45 | 65 | 4.0 | 8.0 | 0.00 | 0.00 | 0.00 | 31 | 1018.9 |
| 20260501235029 | 45 | 67 | 3.0 | 8.0 | 0.00 | 0.00 | 0.00 | 32 | 1018.9 |
| 20260501234502 | 44 | 67 | 3.0 | 7.0 | 0.00 | 0.00 | 0.00 | 33 | 1018.9 |
| 20260501233959 | 44 | 98 | 3.0 | 7.0 | 0.00 | 0.00 | 0.00 | 32 | 1018.9 |
| 20260501233431 | 44 | 96 | 3.0 | 7.0 | 0.00 | 0.00 | 0.00 | 32 | 1018.9 |
| 20260501232929 | 44 | 92 | 3.0 | 6.0 | 0.00 | 0.00 | 0.00 | 33 | 1018.9 |
| 20260501232401 | 44 | 109 | 3.0 | 6.0 | 0.00 | 0.00 | 0.00 | 33 | 1018.9 |
| 20260501231857 | 44 | 109 | 3.0 | 6.0 | 0.00 | 0.00 | 0.00 | 34 | 1019.0 |
| 20260501231353 | 44 | 96 | 3.0 | 6.0 | 0.00 | 0.00 | 0.00 | 33 | 1019.0 |
| 20260501230850 | 44 | 100 | 3.0 | 7.0 | 0.00 | 0.00 | 0.00 | 33 | 1018.9 |
| 20260501230347 | 44 | 98 | 4.0 | 7.0 | 0.00 | 0.00 | 0.00 | 33 | 1019.0 |
| 20260501225845 | 44 | 85 | 3.0 | 7.0 | 0.00 | 0.00 | 0.00 | 35 | 1019.0 |
| 20260501225341 | 44 | 131 | 3.0 | 6.0 | 0.00 | 0.00 | 0.00 | 34 | 1019.0 |
| 20260501224839 | 44 | 103 | 3.0 | 6.0 | 0.00 | 0.00 | 0.00 | 33 | 1019.0 |
| 20260501224314 | 44 | 73 | 4.0 | 6.0 | 0.00 | 0.00 | 0.00 | 33 | 1019.0 |
| 20260501224309 | 44 | 109 | 4.0 | 7.0 | 0.00 | 0.00 | 0.00 | 33 | 1019.0 |
| 20260501223242 | 43 | 70 | 4.0 | 8.0 | 0.00 | 0.00 | 0.00 | 33 | 1019.0 |
| 20260501222713 | 44 | 104 | 4.0 | 8.0 | 0.00 | 0.00 | 0.00 | 33 | 1019.0 |
| 20260501222146 | 44 | 116 | 4.0 | 7.0 | 0.00 | 0.00 | 0.00 | 34 | 1019.0 |
| 20260501221642 | 44 | 96 | 4.0 | 7.0 | 0.00 | 0.00 | 0.00 | 35 | 1019.1 |
| 20260501221139 | 44 | 87 | 4.0 | 8.0 | 0.00 | 0.00 | 0.00 | 34 | 1019.1 |
| 20260501220908 | 44 | 105 | 3.0 | 8.0 | 0.00 | 0.00 | 0.00 | 33 | 1019.1 |
| 20260501220340 | 44 | 80 | 4.0 | 8.0 | 0.00 | 0.00 | 0.00 | 32 | 1019.1 |
| 20260501215607 | 44 | 65 | 3.0 | 8.0 | 0.00 | 0.00 | 0.00 | 32 | 1019.1 |
| 20260501215039 | 44 | 105 | 4.0 | 8.0 | 0.00 | 0.00 | 0.00 | 34 | 1019.0 |
| 20260501214536 | 43 | 82 | 5.0 | 9.0 | 0.00 | 0.00 | 0.00 | 35 | 1019.1 |
| 20260501214006 | 42 | 49 | 7.0 | 10.0 | 0.00 | 0.00 | 0.00 | 35 | 1019.1 |
| 20260501213441 | 42 | 101 | 6.0 | 10.0 | 0.00 | 0.00 | 0.00 | 36 | 1019.1 |
| 20260501213145 | 43 | 101 | 5.0 | 9.0 | 0.00 | 0.00 | 0.00 | 36 | 1019.1 |
| 20260501212410 | 42 | 103 | 6.0 | 9.0 | 0.00 | 0.00 | 0.00 | 36 | 1019.1 |
| 20260501212116 | 42 | 101 | 6.0 | 10.0 | 0.00 | 0.00 | 0.00 | 35 | 1019.3 |
| 20260501211324 | 42 | 96 | 7.0 | 10.0 | 0.00 | 0.00 | 0.00 | 34 | 1019.3 |
| 20260501211019 | 43 | 113 | 5.0 | 10.0 | 0.00 | 0.00 | 0.00 | 34 | 1019.2 |
| 20260501210244 | 44 | 118 | 4.0 | 9.0 | 0.00 | 0.00 | 0.00 | 35 | 1019.3 |